Location: Unspecified
(0.0000°N, 0.0000°E)
Time: 06:16:27
(UTC+00:00)

ISS - Visible Passes

Search period start: 23 August 2017 00:00
Search period end: 02 September 2017 00:00
Orbit: 401 x 408 km, 51.6° (Epoch: 23 August)

Date Brightness Start Highest point End Pass type
(mag) Time Alt. Az. Time Alt. Az. Time Alt. Az.
23 Aug -1.3 05:27:18 10° S 05:29:52 21° SE 05:32:25 10° ENE visible
23 Aug -1.1 18:37:40 10° W 18:40:00 18° SW 18:42:19 10° S visible
25 Aug -3.9 05:18:28 10° SW 05:21:46 89° SE 05:25:02 10° NE visible
26 Aug -2.1 04:29:06 28° SE 04:29:34 29° SE 04:32:28 10° ENE visible
27 Aug -2.3 05:12:39 18° W 05:13:36 21° NW 05:16:09 10° N visible
28 Aug -1.6 04:23:22 21° NNE 04:23:22 21° NNE 04:24:36 10° NNE visible
